This is the latest recevied weather packets stored in our database for station/object KC3SOZ. If no packets are shown the sender has not sent any weather packets the latest 10 day(s).
| Time | Temp. | Humidity | Pressure | Rain* | Wind** | Luminosity | Snow |
|---|---|---|---|---|---|---|---|
| 1777684228 | 8.33° C | 99% | 1012.7 hPa | 0 mm | - | 0 W/m² | - |
| 1777683926 | 8.33° C | 99% | 1012.5 hPa | 0 mm | - | 0 W/m² | - |
| 1777683622 | 8.33° C | 99% | 1012.7 hPa | 0 mm | - | 0 W/m² | - |
| 1777683320 | 8.33° C | 99% | 1012.5 hPa | 0 mm | - | 0 W/m² | - |
| 1777683018 | 8.89° C | 99% | 1012.5 hPa | 0 mm | - | 0 W/m² | - |
| 1777682713 | 8.89° C | 99% | 1012.4 hPa | 0 mm | - | 0 W/m² | - |
| 1777682410 | 8.89° C | 99% | 1012.3 hPa | 0 mm | - | 0 W/m² | - |
| 1777682108 | 8.89° C | 99% | 1012.4 hPa | 0 mm | - | 0 W/m² | - |
| 1777681804 | 8.89° C | 99% | 1012.3 hPa | 0 mm | - | 0 W/m² | - |
| 1777681501 | 8.89° C | 99% | 1012.3 hPa | 0 mm | - | 0 W/m² | - |
| 1777681198 | 8.89° C | 99% | 1012.5 hPa | 0 mm | - | 0 W/m² | - |
| 1777680896 | 8.89° C | 99% | 1012.5 hPa | 0 mm | - | 0 W/m² | - |
| 1777680593 | 8.89° C | 99% | 1012.4 hPa | 0 mm | - | 0 W/m² | - |
| 1777680292 | 8.89° C | 99% | 1012.5 hPa | 0 mm | - | 1 W/m² | - |
| 1777679987 | 8.89° C | 99% | 1012.6 hPa | 0 mm | - | 2 W/m² | - |
| 1777679683 | 8.89° C | 99% | 1012.1 hPa | 0 mm | - | 2 W/m² | - |
| 1777679378 | 9.44° C | 99% | 1012.4 hPa | 0 mm | - | 3 W/m² | - |
| 1777679075 | 9.44° C | 98% | 1012.4 hPa | 0 mm | - | 3 W/m² | - |
| 1777678774 | 9.44° C | 97% | 1012.4 hPa | 0 mm | - | 5 W/m² | - |
| 1777678471 | 9.44° C | 97% | 1012.4 hPa | 0 mm | - | 7 W/m² | - |
| 1777678167 | 9.44° C | 97% | 1012.5 hPa | 0 mm | - | 8 W/m² | - |
| 1777677864 | 9.44° C | 95% | 1012.3 hPa | 0 mm | - | 14 W/m² | - |
| 1777677561 | 9.44° C | 91% | 1012.5 hPa | 0 mm | - | 24 W/m² | - |
| 1777677260 | 9.44° C | 92% | 1012.7 hPa | 1.78 mm | - | 26 W/m² | - |
| 1777676957 | 9.44° C | 90% | 1012.7 hPa | 1.78 mm | - | 31 W/m² | - |
* Rain latest hour (hover to see other rain measurements)
** Current wind speed in m/s (hover to see current wind gust speed)